Location: Archemont
(49.1579°N, 1.7598°E)
Time: 22:39:27
(UTC+00:00)

Altair - Pass Details

Date: 19 April 2024
Orbit: 1501 x 1682 km, 47.2° (Epoch: 19 May)

Event Time Altitude Azimuth Distance (km) Brightness Sun altitude
Rises 02:32:54 0° 289° (WNW) 4,779 9.9 -20.0°
Reaches altitude 10° 02:36:57 10° 274° (W) 3,760 9.2 -19.5°
Enters shadow 02:38:40 14° 266° (W) 3,410 8.9 -19.3°
Maximum altitude 02:43:28 21° 230° (SW) 2,917 - -18.8°
Drops below altitude 10° 02:49:51 10° 186° (S) 3,668 - -18.0°
Exits shadow 02:51:36 - 178° (S) 4,071 9.3 -17.8°
Sets 02:53:46 0° 171° (S) 4,631 9.7 -17.6°
